Temperature
-0 -0 -0 -0 -0 -0 0 0 1 1 1 1 1 1 1 1 1 1 1 2 2 2 2 2 2 3 3 3 3 3 3 3 3 3 3 3 3 3 3 3 3 3 4
-1 -1 -1 -1 -1 -0 -0 0 0 0 0 0 0 1 1 1 1 1 1 1 1 1 1 1 2 2 2 2 2 2 2 2 3 3 3 3 3 3 3 3 3 3 3
-1 -1 -1 -1 -1 -1 -0 -0 -0 -0 -0 -0 0 0 0 0 1 1 1 1 1 1 1 1 1 1 1 1 2 2 2 2 2 2 2 2 2 2 2 2 2 3 2
-2 -2 -2 -1 -1 -1 -1 -1 -1 -1 -1 -0 -0 -0 -0 0 0 0 0 0 0 0 1 1 1 1 1 1 1 1 1 1 1 2 2 2 2 2 2 2 2 2 2
-2 -2 -2 -2 -2 -2 -2 -2 -1 -1 -1 -1 -1 -1 -1 -0 -0 -0 -0 -0 -0 -0 -0 0 0 0 0 0 1 1 1 1 1 1 1 1 1 1 1 1 1 1 1
-3 -2 -2 -2 -2 -2 -2 -2 -2 -2 -2 -2 -1 -1 -1 -1 -1 -1 -1 -1 -1 -0 -0 -0 -0 -0 -0 -0 -0 0 0 0 0 0 0 0 1 1 1 1 1 0 0
-3 -3 -3 -3 -3 -3 -3 -3 -2 -2 -2 -2 -2 -2 -2 -1 -1 -1 -1 -1 -1 -1 -1 -1 -1 -1 -1 -1 -1 -1 -0 -0 -0 -0 0 0 0 0 0 0 0 0 0
-4 -4 -3 -3 -3 -3 -3 -3 -3 -3 -3 -3 -2 -2 -2 -2 -2 -2 -2 -2 -2 -2 -2 -1 -1 -1 -1 -1 -1 -1 -1 -1 -1 -1 -1 -0 -0 -0 -0 -0 -0 -0 -0
-4 -4 -4 -4 -4 -4 -4 -4 -4 -4 -3 -3 -3 -3 -3 -3 -3 -3 -2 -2 -2 -2 -2 -2 -2 -2 -2 -2 -2 -2 -1 -1 -1 -1 -1 -1 -1 -1 -1 -1 -1 -1 -1
-5 -5 -5 -4 -4 -4 -4 -4 -4 -4 -4 -4 -4 -3 -3 -3 -3 -3 -3 -3 -3 -3 -3 -3 -3 -3 -3 -3 -3 -2 -2 -2 -2 -2 -2 -2 -2 -2 -2 -2 -2 -2 -2
-5 -5 -5 -5 -5 -5 -5 -5 -4 -4 -4 -4 -4 -4 -4 -4 -4 -4 -4 -4 -4 -4 -4 -3 -3 -3 -3 -3 -3 -3 -3 -3 -2 -2 -2 -2 -2 -2 -2 -2 -2 -2 -2
-6 -6 -6 -5 -5 -5 -5 -5 -5 -5 -5 -5 -4 -4 -4 -4 -4 -4 -4 -4 -4 -4 -4 -4 -4 -4 -4 -4 -4 -4 -3 -3 -3 -3 -3 -3 -3 -2 -2 -2 -2 -3 -3
-6 -6 -6 -6 -6 -6 -6 -6 -5 -5 -5 -5 -5 -5 -5 -5 -5 -5 -5 -5 -5 -5 -5 -5 -5 -4 -4 -4 -4 -4 -4 -4 -3 -3 -3 -3 -3 -3 -3 -3 -3 -3 -3
-7 -7 -7 -7 -7 -7 -6 -6 -6 -6 -6 -6 -6 -6 -5 -5 -5 -5 -5 -5 -5 -5 -5 -5 -5 -5 -5 -5 -5 -5 -5 -4 -4 -4 -4 -4 -4 -4 -4 -4 -4 -4 -4
-8 -7 -7 -7 -7 -7 -7 -7 -7 -7 -7 -7 -6 -6 -6 -6 -6 -6 -6 -6 -6 -6 -6 -6 -6 -5 -5 -5 -5 -5 -5 -5 -5 -5 -5 -5 -4 -4 -4 -4 -4 -4 -4
-8 -8 -8 -8 -8 -8 -8 -7 -8 -8 -7 -7 -7 -7 -7 -7 -7 -7 -7 -6 -6 -6 -6 -6 -6 -6 -6 -6 -6 -6 -6 -6 -6 -5 -5 -5 -5 -5 -5 -5 -5 -5 -5
-9 -9 -9 -9 -9 -9 -8 -8 -8 -8 -8 -8 -8 -8 -7 -7 -7 -7 -7 -7 -7 -7 -7 -7 -7 -7 -7 -7 -7 -7 -7 -7 -6 -6 -6 -6 -6 -6 -6 -6 -6 -6 -6
-9 -9 -9 -9 -9 -9 -9 -9 -9 -9 -9 -9 -8 -8 -8 -8 -8 -8 -8 -8 -8 -8 -8 -8 -7 -7 -8 -8 -8 -7 -7 -7 -7 -7 -7 -7 -7 -6 -6 -6 -6 -6 -6
-10 -10 -10 -10 -10 -10 -10 -10 -10 -10 -9 -9 -9 -9 -9 -9 -8 -8 -8 -8 -8 -8 -9 -8 -8 -8 -8 -8 -8 -8 -8 -8 -8 -7 -7 -7 -7 -7 -7 -7 -7 -7 -7
-10 -10 -10 -10 -10 -10 -10 -10 -10 -10 -10 -10 -10 -10 -9 -9 -9 -9 -9 -9 -9 -9 -9 -9 -9 -9 -9 -9 -9 -9 -9 -8 -8 -8 -8 -8 -8 -8 -7 -7 -7 -7 -7
-11 -11 -11 -11 -11 -11 -11 -11 -11 -11 -11 -11 -11 -10 -10 -10 -10 -10 -10 -10 -10 -10 -10 -10 -10 -10 -10 -10 -10 -9 -9 -9 -9 -9 -9 -8 -8 -8 -8 -8 -8 -8 -8
-11 -11 -11 -11 -11 -11 -11 -11 -11 -11 -11 -11 -11 -11 -11 -11 -11 -10 -10 -10 -11 -11 -11 -11 -11 -11 -11 -10 -10 -10 -10 -10 -9 -9 -9 -9 -9 -9 -9 -9 -9 -9 -9
-11 -11 -11 -11 -11 -11 -11 -11 -11 -11 -11 -11 -11 -11 -11 -11 -11 -11 -11 -11 -11 -11 -11 -11 -11 -11 -11 -11 -11 -11 -10 -10 -10 -10 -10 -10 -10 -9 -9 -9 -9 -9 -9
-12 -12 -12 -12 -12 -12 -12 -12 -12 -12 -12 -12 -12 -12 -12 -12 -12 -12 -12 -12 -11 -11 -11 -11 -11 -11 -11 -11 -11 -11 -11 -11 -11 -11 -10 -10 -10 -10 -10 -10 -10 -10 -10
-12 -12 -12 -12 -12 -12 -12 -12 -12 -12 -12 -12 -12 -12 -12 -12 -12 -12 -12 -12 -12 -12 -12 -12 -12 -12 -11 -11 -11 -11 -11 -11 -11 -11 -11 -11 -11 -10 -10 -10 -10 -10 -10
-12 -12 -12 -12 -12 -12 -12 -12 -12 -12 -12 -12 -12 -12 -12 -12 -12 -12 -12 -12 -12 -12 -12 -12 -12 -12 -12 -12 -12 -12 -11 -11 -11 -11 -11 -11 -11 -11 -11 -11 -11 -11 -11
Wind_Speed
2 2 2 2 3 2 2 2 3 3 3 4 5 5 5 4 4 4 4 4 4 4 3 4 3 3 2 2 2 2 2 2 3 2 1 2 2 3 3 4 5 5 5
2 2 2 2 1 2 2 2 3 3 3 4 4 5 5 5 5 5 5 5 5 5 5 4 4 3 3 3 3 3 3 2 2 3 2 2 3 4 3 3 4 5 5
1 1 1 1 1 1 1 2 2 2 2 3 4 5 5 5 5 5 5 5 5 6 6 6 5 5 4 3 3 4 3 2 2 3 3 2 2 2 2 2 3 3 4
2 1 1 2 2 2 1 1 1 2 2 2 3 4 5 5 5 6 5 5 4 5 5 5 6 6 5 5 4 4 3 3 2 3 3 2 2 2 2 3 2 2 3
2 2 2 1 1 1 1 1 1 2 2 2 3 3 4 4 5 6 5 5 5 5 5 5 5 6 6 6 5 4 4 4 3 3 4 3 3 3 4 3 3 2 3
3 3 2 1 1 1 1 1 1 1 1 2 2 3 4 4 6 7 6 5 5 6 5 5 5 5 6 7 8 7 6 6 5 5 4 5 5 4 3 3 3 2 4
4 3 3 2 1 2 2 1 2 1 1 2 2 3 3 4 7 8 8 5 5 5 5 5 4 4 4 4 5 6 6 7 8 6 6 7 6 6 5 5 5 4 5
4 4 4 3 2 2 2 1 2 1 1 2 3 3 3 4 7 8 8 5 4 5 5 5 5 5 5 4 4 4 4 5 6 5 6 6 5 5 6 6 5 3 3
4 5 4 3 2 2 2 2 2 1 2 2 2 2 3 3 5 7 8 4 4 5 5 4 5 5 6 6 4 4 4 4 6 6 7 7 7 8 6 3 3 3 3
5 5 5 4 3 2 2 2 2 2 2 2 2 2 2 2 3 5 6 4 4 4 4 5 6 6 7 7 5 5 5 5 4 4 4 5 5 6 7 6 5 5 3
5 5 4 4 4 3 2 2 2 2 2 2 2 2 1 2 3 5 5 3 4 4 3 3 4 6 7 8 7 5 7 5 3 3 3 3 2 3 3 4 4 4 4
5 5 4 4 4 3 2 2 2 1 1 2 2 2 1 2 3 4 5 6 5 4 4 3 4 6 8 8 6 6 6 4 2 2 3 3 3 3 3 2 2 2 3
6 5 5 4 4 3 3 2 2 2 1 2 2 2 2 1 2 4 5 6 6 4 3 5 5 6 6 5 5 5 4 2 2 3 3 3 3 3 2 1 1 0 1
6 6 5 4 4 4 3 2 2 2 2 2 2 2 2 1 1 1 2 3 4 4 3 4 4 4 3 2 3 2 2 2 3 3 3 2 2 2 2 2 2 1 1
6 5 5 5 4 3 3 3 3 2 1 2 2 2 1 2 3 3 2 2 2 3 3 2 2 2 2 2 1 1 1 1 2 2 2 2 2 3 2 2 2 2 2
5 5 5 4 4 3 3 3 4 4 5 4 4 3 2 3 4 4 4 4 4 3 2 2 2 2 2 2 2 2 2 2 2 2 2 3 3 3 3 2 2 3 3
5 5 5 4 4 4 4 3 4 4 5 5 5 5 4 4 4 4 3 2 2 1 1 1 1 1 1 2 2 2 2 2 2 2 3 3 3 3 3 3 3 3 3
5 6 5 4 4 4 4 3 3 3 4 4 5 6 5 4 4 3 2 1 1 1 0 0 1 1 1 1 2 2 2 2 2 2 3 3 3 3 4 4 3 4 3
5 4 4 4 4 3 3 3 3 4 4 4 4 5 5 4 3 4 3 2 1 1 1 1 1 1 1 1 1 1 1 2 2 2 2 2 3 3 3 4 4 5 4
5 7 6 4 4 4 3 3 3 3 4 4 4 4 4 3 2 3 2 2 1 1 1 1 1 1 1 1 1 1 2 2 2 2 2 2 2 2 3 4 4 4 3
4 5 7 5 4 4 3 3 3 3 3 3 3 4 5 3 2 2 1 1 1 1 1 1 1 1 1 1 2 2 2 2 2 2 2 3 3 3 3 3 3 3 3
4 4 4 4 4 4 3 3 3 3 3 3 3 4 6 3 2 2 2 2 2 2 1 1 1 1 2 2 2 2 2 2 2 2 2 3 2 3 3 3 3 3 3
4 4 4 4 4 5 5 3 3 3 3 3 3 3 3 2 2 2 2 2 2 2 2 2 1 2 2 3 3 3 3 3 3 3 3 3 3 3 3 3 3 3 3
4 4 4 4 4 4 4 3 3 3 3 3 3 3 2 2 2 3 2 2 2 2 3 3 3 3 4 4 4 4 5 5 5 5 5 4 4 3 3 3 3 4 4
4 4 4 4 4 4 4 4 3 4 4 3 3 3 3 3 3 3 3 3 3 3 3 4 4 4 5 6 6 6 7 8 7 6 5 4 4 4 4 4 4 4 4
3 4 4 4 4 4 4 4 4 4 4 4 3 3 3 3 3 3 3 3 3 3 4 4 5 6 7 7 8 9 9 9 9 9 6 4 4 4 4 4 5 5 5
Wind_Direction
261 263 274 262 242 225 222 223 204 197 197 202 206 205 201 197 198 203 210 201 205 217 211 200 200 188 195 197 199 216 222 195 232 252 256 205 199 204 231 227 226 224 234
268 260 262 265 256 239 225 227 213 205 201 206 210 210 208 201 198 207 210 208 207 212 210 207 208 200 201 208 205 216 224 216 209 241 249 230 220 210 215 215 228 231 235
294 274 269 267 253 261 250 235 218 213 208 207 210 211 209 203 202 210 207 211 216 213 208 208 210 201 208 212 214 217 220 228 210 213 236 245 231 215 212 228 230 237 239
331 313 285 272 257 260 263 257 242 226 211 199 212 212 210 204 205 213 210 207 223 216 212 211 212 207 206 208 220 220 217 215 203 203 222 239 233 220 203 221 243 235 245
330 316 300 299 295 280 274 266 250 228 225 206 210 219 217 212 213 211 209 211 221 218 217 215 216 217 219 221 223 216 211 213 212 212 220 241 235 214 217 218 241 250 255
329 321 324 332 334 309 291 280 263 246 233 213 212 218 226 226 229 226 222 212 214 213 214 215 218 222 226 237 240 238 227 219 217 220 231 232 233 233 227 225 233 254 261
338 335 342 342 328 303 296 307 295 282 262 243 224 213 223 234 233 226 225 214 211 214 214 214 225 225 229 222 241 252 251 247 238 229 229 234 228 223 221 222 225 239 258
345 344 346 339 325 317 311 307 304 303 291 268 249 232 222 243 242 224 220 213 214 218 217 214 212 211 224 220 218 235 241 248 248 240 231 237 238 220 217 227 231 240 275
343 340 337 334 325 319 315 311 308 314 300 285 269 246 233 248 248 232 223 204 214 224 224 220 212 210 230 233 221 226 243 256 262 256 258 258 256 246 231 216 215 222 259
333 329 334 335 328 308 299 306 315 308 295 289 284 254 229 236 253 241 228 207 217 225 224 223 227 229 233 233 220 217 233 249 252 262 270 273 259 239 232 218 211 220 242
330 334 338 338 332 321 313 317 319 311 314 312 303 286 259 253 255 248 235 211 211 218 228 228 230 239 241 241 240 229 237 246 239 232 239 246 231 219 224 225 216 211 221
338 339 340 341 338 336 347 341 332 328 323 312 311 301 289 276 270 254 241 237 231 216 227 232 234 244 245 244 246 247 248 250 233 229 233 230 224 224 220 214 213 226 229
343 343 338 342 346 348 354 345 336 337 319 305 302 297 293 294 282 271 263 256 245 234 238 239 241 243 244 241 254 260 249 230 217 232 236 234 228 213 195 184 170 6 294
344 341 341 344 348 352 348 344 344 337 323 308 303 298 302 313 313 286 273 267 256 251 252 253 246 245 247 253 257 256 251 240 238 237 236 233 215 209 209 203 222 225 257
343 341 343 345 343 345 348 353 349 354 335 317 307 293 287 289 287 276 254 239 233 234 234 233 224 221 212 217 218 224 237 251 265 258 237 233 234 230 234 220 215 215 236
345 343 340 340 340 344 344 343 348 348 349 338 326 317 300 289 291 284 269 270 270 257 241 231 234 223 217 221 223 237 246 250 251 250 243 238 239 235 236 234 224 226 232
342 338 338 341 341 342 341 340 336 338 339 341 343 336 325 315 299 292 281 287 300 282 235 235 237 241 254 253 242 244 251 258 256 250 250 241 239 240 238 232 230 237 239
344 343 340 335 338 339 338 336 336 338 340 340 339 338 331 330 333 336 339 360 7 12 27 272 270 284 280 268 261 259 262 262 255 254 252 243 236 236 236 232 230 235 242
343 340 336 336 338 339 341 344 348 348 347 344 347 345 345 343 356 12 22 44 53 13 341 336 317 298 290 279 278 277 271 269 267 269 265 256 242 231 235 233 231 236 244
338 340 343 340 343 345 348 348 348 347 346 348 351 349 350 360 10 12 21 22 14 346 332 319 318 313 301 288 280 275 274 273 269 267 268 260 252 242 241 239 233 231 237
334 337 343 344 344 342 341 340 339 340 340 340 339 343 350 359 354 350 357 353 340 327 320 315 310 306 302 292 283 273 270 271 269 268 264 257 246 247 252 248 235 230 235
332 333 336 335 334 334 334 334 333 333 333 329 327 333 340 350 349 347 342 335 331 322 315 300 293 291 280 276 271 269 269 272 271 268 273 265 256 252 252 255 248 234 230
335 333 334 333 331 330 334 333 332 327 322 318 319 325 332 336 333 327 321 319 318 315 314 308 299 298 294 284 274 261 256 257 261 258 258 257 252 251 251 252 252 245 239
332 331 329 329 330 328 323 319 319 317 316 315 313 313 313 313 311 310 308 307 306 310 311 305 290 283 282 284 286 282 271 264 261 255 246 244 243 246 248 247 250 250 242
331 328 325 321 318 316 315 310 307 308 307 306 305 304 303 302 300 299 296 289 287 290 294 296 291 285 282 282 282 281 279 275 271 265 250 240 237 235 238 238 243 249 248
322 320 319 317 313 309 308 305 301 300 298 298 299 298 294 291 289 289 290 286 285 284 288 290 290 288 287 285 283 282 282 278 275 272 260 243 234 233 235 238 238 240 240
Height
1458 1458 1458 1459 1460 1461 1462 1463 1464 1465 1467 1469 1470 1472 1473 1475 1478 1480 1482 1485 1487 1489 1492 1494 1496 1498 1500 1502 1504 1506 1508 1509 1510 1510 1512 1514 1515 1516 1516 1517 1518 1518 1519
1454 1455 1455 1456 1456 1458 1458 1459 1461 1462 1463 1465 1466 1468 1469 1471 1474 1476 1478 1481 1483 1485 1487 1489 1492 1494 1496 1497 1499 1501 1503 1504 1506 1506 1507 1509 1510 1511 1512 1512 1513 1514 1514
1452 1452 1452 1453 1453 1454 1454 1456 1456 1457 1459 1461 1462 1463 1465 1467 1469 1472 1474 1476 1478 1481 1483 1485 1487 1489 1491 1493 1495 1496 1498 1500 1501 1502 1502 1504 1505 1506 1507 1508 1509 1509 1510
1450 1449 1449 1449 1450 1450 1451 1451 1452 1454 1455 1456 1458 1459 1461 1463 1465 1467 1469 1472 1474 1476 1479 1481 1483 1485 1486 1488 1490 1491 1493 1495 1496 1497 1498 1499 1500 1501 1502 1502 1503 1504 1504
1448 1447 1447 1447 1447 1447 1448 1448 1449 1450 1451 1452 1453 1455 1456 1458 1460 1462 1464 1467 1469 1472 1474 1476 1478 1480 1482 1484 1485 1486 1488 1489 1491 1492 1493 1494 1495 1495 1496 1497 1498 1498 1499
1446 1445 1445 1445 1445 1445 1445 1445 1446 1447 1447 1448 1449 1451 1452 1454 1456 1458 1460 1462 1465 1467 1469 1471 1473 1475 1477 1479 1480 1482 1483 1484 1485 1486 1487 1488 1489 1490 1492 1492 1493 1493 1492
1444 1443 1442 1442 1442 1442 1442 1442 1443 1443 1444 1445 1446 1447 1448 1450 1452 1454 1456 1458 1460 1462 1464 1466 1468 1470 1472 1474 1475 1477 1478 1480 1482 1482 1482 1483 1484 1485 1487 1487 1487 1488 1487
1442 1441 1441 1440 1440 1439 1439 1439 1439 1440 1440 1441 1442 1443 1444 1446 1448 1450 1452 1454 1455 1457 1459 1461 1463 1464 1466 1468 1470 1471 1472 1474 1475 1476 1478 1478 1479 1480 1482 1482 1483 1483 1483
1441 1440 1439 1438 1437 1437 1436 1436 1437 1437 1437 1438 1439 1440 1441 1442 1444 1446 1448 1449 1451 1452 1454 1456 1458 1460 1462 1463 1465 1466 1467 1468 1470 1471 1472 1473 1474 1475 1477 1477 1477 1477 1477
1440 1439 1438 1437 1435 1434 1434 1434 1434 1434 1435 1435 1436 1436 1437 1438 1440 1442 1444 1445 1446 1448 1449 1451 1454 1455 1457 1458 1460 1460 1461 1462 1464 1465 1466 1467 1468 1470 1471 1472 1472 1472 1472
1439 1438 1436 1435 1434 1433 1432 1432 1432 1432 1432 1432 1432 1433 1434 1435 1436 1438 1439 1441 1442 1443 1444 1446 1448 1450 1452 1453 1455 1456 1456 1458 1459 1460 1461 1461 1462 1464 1465 1466 1467 1467 1467
1437 1436 1434 1433 1431 1430 1429 1429 1429 1429 1430 1429 1429 1430 1430 1431 1433 1434 1435 1437 1438 1439 1440 1442 1443 1445 1447 1448 1449 1451 1452 1453 1454 1455 1455 1456 1457 1458 1459 1460 1461 1461 1462
1436 1434 1432 1431 1429 1428 1428 1427 1427 1427 1427 1427 1427 1427 1427 1428 1429 1430 1431 1432 1434 1435 1436 1437 1439 1440 1442 1443 1444 1446 1447 1448 1449 1449 1450 1450 1451 1452 1453 1454 1455 1456 1456
1434 1432 1430 1429 1428 1427 1426 1426 1425 1425 1425 1424 1424 1424 1424 1425 1426 1427 1427 1429 1430 1431 1432 1433 1435 1436 1437 1439 1440 1441 1442 1443 1444 1445 1445 1446 1446 1447 1448 1449 1449 1450 1450
1432 1431 1429 1428 1426 1425 1425 1424 1424 1423 1423 1423 1422 1422 1422 1422 1422 1424 1424 1425 1426 1427 1428 1429 1430 1431 1432 1434 1435 1436 1437 1438 1439 1440 1440 1441 1441 1442 1443 1444 1444 1445 1445
1431 1430 1428 1427 1425 1424 1423 1423 1422 1422 1421 1421 1420 1420 1419 1420 1420 1420 1421 1422 1423 1424 1425 1425 1425 1426 1428 1429 1430 1431 1432 1433 1434 1435 1435 1436 1437 1437 1438 1439 1439 1440 1440
1431 1429 1427 1426 1425 1423 1422 1421 1420 1420 1419 1418 1417 1416 1416 1416 1417 1417 1418 1419 1420 1421 1421 1421 1421 1423 1424 1425 1426 1426 1427 1428 1429 1430 1431 1431 1432 1433 1433 1433 1434 1435 1435
1430 1428 1427 1425 1424 1423 1421 1420 1419 1418 1416 1415 1415 1414 1414 1414 1414 1415 1415 1416 1417 1417 1417 1417 1418 1419 1420 1421 1422 1422 1423 1424 1425 1425 1426 1427 1427 1428 1428 1428 1429 1429 1430
1429 1427 1426 1425 1423 1422 1421 1419 1418 1417 1415 1414 1413 1412 1412 1412 1412 1413 1413 1413 1413 1414 1414 1415 1415 1416 1416 1417 1418 1418 1419 1419 1420 1421 1421 1422 1422 1423 1423 1424 1424 1424 1425
1429 1427 1425 1424 1422 1421 1420 1419 1417 1416 1415 1413 1412 1412 1412 1411 1410 1411 1411 1411 1412 1412 1412 1412 1412 1413 1413 1414 1414 1415 1415 1415 1416 1416 1417 1417 1418 1418 1418 1419 1419 1420 1420
1428 1426 1425 1423 1422 1421 1419 1418 1417 1416 1414 1413 1412 1412 1411 1410 1409 1409 1409 1409 1409 1409 1410 1410 1410 1410 1411 1411 1411 1411 1411 1411 1411 1412 1412 1412 1413 1413 1414 1414 1415 1415 1416
1427 1426 1424 1423 1421 1420 1419 1417 1416 1415 1414 1412 1411 1410 1410 1409 1408 1408 1408 1408 1408 1408 1408 1408 1408 1408 1408 1408 1407 1407 1407 1407 1407 1407 1408 1408 1408 1409 1409 1410 1410 1410 1411
1426 1424 1423 1422 1420 1419 1417 1416 1415 1413 1412 1411 1410 1409 1408 1407 1407 1406 1406 1406 1406 1405 1405 1405 1405 1404 1404 1404 1404 1404 1403 1403 1404 1404 1404 1404 1404 1404 1405 1405 1406 1406 1406
1425 1423 1421 1420 1418 1417 1416 1414 1413 1411 1410 1409 1408 1407 1406 1405 1405 1404 1404 1403 1403 1402 1402 1401 1401 1401 1400 1400 1400 1400 1400 1400 1399 1399 1400 1400 1400 1400 1400 1401 1402 1402 1402
1423 1421 1420 1418 1416 1415 1413 1412 1411 1409 1408 1407 1406 1405 1404 1403 1402 1401 1401 1400 1399 1398 1398 1398 1397 1396 1396 1396 1396 1395 1395 1395 1395 1395 1395 1395 1395 1396 1396 1397 1397 1397 1397
1421 1419 1418 1416 1414 1413 1411 1409 1408 1407 1405 1404 1403 1402 1401 1400 1399 1398 1397 1396 1395 1394 1394 1393 1393 1392 1392 1391 1391 1390 1390 1390 1390 1391 1391 1391 1391 1391 1392 1392 1392 1393 1393